Regional Weather Roundup
Issued by NWS

Home | Current Version | Previous Version | Graphics & Text | Print | Product List | Glossary On
Versions: 1 2 3 4 5 6 7 8 9 10 11 12 13 14 15 16 17 18 19 20 21 22 23 24 25 26 27 28 29 30 31 32 33 34 35 36 37 38 39 40 41 42 43 44 45 46 47 48 49 50
000
ASUS43 KDTX 231110
RWRMI
MICHIGAN HOURLY REGIONAL WEATHER ROUNDUP
NATIONAL WEATHER SERVICE DETROIT/PONTIAC MI
700 AM EDT MON APR 23 2018

NOTE: "FAIR" INDICATES FEW OR NO CLOUDS BELOW 12,000 FEET WITH NO
SIGNIFICANT WEATHER AND/OR OBSTRUCTION TO VISIBILITY.

MIZ047>049-052>055-059>063-066>070-074>076-081>083-231200-
SOUTHEAST LOWER MICHIGAN

CITY           SKY/WX    TMP DP  RH WIND       PRES   REMARKS
ADRIAN         FAIR      41  26  55 NE8       30.24S
ALMA           FAIR      36  31  83 N3        30.31R
ANN ARBOR      FAIR      42  26  53 NE7       30.26R
BAD AXE        FAIR      41  22  46 E6        30.33R
CARO           FAIR      35  25  67 E5        30.30R WCI  30
DETROIT CITY   FAIR      41  29  62 E7        30.28R
DETROIT        MOCLDY    42  27  55 NE5       30.27R
FLINT          FAIR      36  25  64 E7        30.29R WCI  30
GROSSE ILE     FAIR      40  31  70 NE6       30.25R
HILLSDALE      FAIR      39  27  60 E7        30.22R WCI  34
HOWELL         FAIR      40  24  52 E7        30.26R

CITY           SKY/WX    TMP DP  RH WIND       PRES   REMARKS
JACKSON        FAIR      36  26  67 CALM      30.25R
LAMBERTVILLE   FAIR      44  35  69 NE6       30.23S
LANSING        FAIR      37  26  64 NE5       30.27R WCI  33
LAPEER         FAIR      40  24  52 CALM      30.30R
MASON          FAIR      39  22  50 E3        30.26R
MONROE         FAIR      40  28  62 CALM      30.24R
MT. CLEMENS    FAIR      43  29  58 NE6       30.27R
PONTIAC        FAIR      41  24  51 E6        30.27R
PORT HOPE        N/A     35  31  85 E3        30.32S
PORT HURON     FAIR      36  25  64 CALM      30.30R
TRI CITIES     FAIR      36  32  85 N12       30.31R WCI  28
MIDLAND        FAIR      29  28  95 CALM      30.32R
TROY           FAIR      43  22  43 NE5       30.30R
SAGINAW HB     FAIR      32  27  80 N3        30.31R
$$
MIZ043>046-050>051-056>058-064>065-071>073-077>080-231200-
SOUTHWEST LOWER MICHIGAN

CITY           SKY/WX    TMP DP  RH WIND       PRES   REMARKS
BATTLE CREEK   FAIR      42  24  49 E7        30.24R
BENTON HARBOR  FAIR      42  23  46 NE6       30.22S
BIG RAPIDS     FAIR      29  24  81 CALM      30.31R
COLDWATER      FAIR      39  24  56 NE7       30.21F WCI  34
FREMONT        FAIR      39  21  48 NE7       30.29R WCI  34
HOLLAND        FAIR      41  27  57 NE7       30.26R
GRAND RAPIDS   MOCLDY    38  26  62 NE8       30.26S WCI  32
IONIA          FAIR      38  26  61 NE7       30.27R WCI  33
KALAMAZOO      FAIR      41  23  48 NE5       30.24R
LUDINGTON      FAIR      31  27  84 E3        30.31R
MARSHALL       FAIR      38  23  54 CALM      30.24R
MOUNT PLEASANT FAIR      36  27  71 CALM      30.31R
MUSKEGON       FAIR      41  27  57 NE7       30.28S
SOUTH HAVEN    FAIR      41  23  47 E6        30.23S
$$
MIZ016>042-231200-
NORTHERN LOWER MICHIGAN

CITY           SKY/WX    TMP DP  RH WIND       PRES   REMARKS
ALPENA         FAIR      26  24  92 CALM      30.36R
BEAVER ISLAND  FAIR      43  20  40 CALM      30.33R
BELLAIRE       FAIR      28  26  93 CALM      30.34S
CADILLAC       FAIR      27  23  86 CALM      30.31R
CHARLEVOIX     FAIR      33  24  70 E6        30.36R WCI  27
FRANKFORT      FAIR      32  27  80 CALM      30.32R
GAYLORD        FAIR      30  21  69 CALM      30.33R
GRAYLING       FAIR      23  19  86 CALM      30.33R
HARBOR SPRINGS FAIR      29  26  88 E6        30.34R WCI  23
HOUGHTON LAKE  FAIR      27  24  89 CALM      30.33S
MANISTEE       FAIR      27  24  89 E6        30.32R WCI  20
OSCODA         FAIR      27  21  77 CALM      30.35R
PELLSTON       FAIR      24  21  88 CALM      30.34R
ROGERS CITY    FAIR      32  21  64 CALM      30.36R
TRAVERSE CITY  FAIR      33  26  75 CALM      30.32R
$$
MIZ007>008-015-231200-
EASTERN UPPER MICHIGAN

CITY           SKY/WX    TMP DP  RH WIND       PRES   REMARKS
KINROSS        FAIR      31  21  66 SE8       30.33S WCI  23
MACKINAC ISLAN FAIR      41  17  38 S9        30.33R
NEWBERRY       FAIR      36  21  54 S8        30.31R WCI  30
S. S. MARIE    FAIR      34  22  61 E6        30.33S WCI  29
MUNISING         N/A     36  20  52 S9        30.28R WCI  29
$$
MIZ004>006-011>014-085-231200-
CENTRAL UPPER MICHIGAN

CITY           SKY/WX    TMP DP  RH WIND       PRES   REMARKS
MANISTIQUE     FAIR      29  27  94 CALM      30.31R
ESCANABA       FAIR      24  22  91 CALM      30.30F
MENOMINEE      FAIR      29  25  85 CALM      30.31R
SAWYER-GWINN   CLEAR     32  19  59 S5        30.28S WCI  27
$$
MIZ001>003-009>011-084-231200-
WESTERN UPPER MICHIGAN

CITY           SKY/WX    TMP DP  RH WIND       PRES   REMARKS
IRON MOUNTAIN  FAIR      26  20  77 CALM      30.28R
HOUGHTON       FAIR      42  19  39 S5        30.23R
COPPER HARBOR    N/A     43  22  43 W8        30.22R
IRONWOOD       FAIR      44  24  45 SW6       30.26R
$$

ABBREVIATIONS USED IN REMARKS
   TC - TEMPERATURE IN CELSIUS
  WCI - WIND CHILL INDEX
   HX - HEAT INDEX
  VSB - VISIBILITY





USA.gov is the U.S. government's official web portal to all federal, state and local government web resources and services.